{"data":{"norad_id":57113,"intl_designator":"2023-090N","name":"STARLINK-6142","alt_names":[],"object_type":"PAYLOAD","status":"ACTIVE","operator":null,"country":"US","launch_date":"2023-06-23","launch_site_code":"AFETR","launch_vehicle":null,"mission":null,"orbit_class":"UNKNOWN","rcs_meters":null,"size_class":null,"mass_kg":null,"dimensions":null,"purposes":["comms"],"wikipedia_slug":null,"has_3d_model":false,"image_url":null,"decayed_at":null,"tle_current":{"epoch":"2026-05-24T14:16:06.215232Z","epoch_age_seconds":120780,"freshness":"FRESH","line1":"1 57113U 23090N   26144.59451638  .00001236  00000+0  54441-4 0  9992","line2":"2 57113  43.0021 212.6608 0001459 267.9876  92.0809 15.27577954161949","mean_motion":15.27577954,"eccentricity":0.0001459,"inclination_deg":43.0021,"raan_deg":212.6608,"arg_perigee_deg":267.9876,"mean_anomaly_deg":92.0809,"bstar":5.4441e-5,"rev_number":16194,"period_min":94.266874972195,"perigee_km":482.05417456127,"apogee_km":484.0562704518,"semimajor_km":6861.1922225065,"source":"CELESTRAK","updated_at":"2026-05-25T13:38:18.241813Z"}}}